Location: Blienschwiller
(48.3416°N, 7.4182°E)
Time: 05:49:21
(UTC+00:00)

Cosmos 2237 Rocket - Pass Details

Date: 18 February 2020
Orbit: 835 x 850 km, 71.0° (Epoch: 09 April)

Event Time Altitude Azimuth Distance (km) Brightness Sun altitude
Exits shadow 05:30:46 10° 304° (NW) 2,430 4.1 -11.0°
Maximum altitude 05:33:05 13° 329° (NNW) 2,255 4.1 -10.6°
Drops below altitude 10° 05:35:34 10° 356° (N) 2,458 4.5 -10.2°
Sets 05:39:36 0° 24° (NNE) 3,396 5.6 -9.6°
